Location: Unspecified
(0.0000°N, 0.0000°E)
Time: 01:45:40
(UTC+00:00)

NOSS 3-2 (A) - Visible Passes

Search period start: 27 February 2021 00:00
Search period end: 09 March 2021 00:00
Orbit: 783 x 1425 km, 63.4° (Epoch: 25 February)

Date Brightness Start Highest point End Pass type
(mag) Time Alt. Az. Time Alt. Az. Time Alt. Az.
27 Feb 3.5 19:20:50 10° S 19:25:47 38° ESE 19:27:00 33° E visible
27 Feb 6.0 21:14:11 10° W 21:14:29 11° W 21:14:29 11° W visible
28 Feb 4.5 18:36:59 10° SSE 18:40:26 17° ESE 18:43:50 10° ENE visible
28 Feb 4.7 20:26:24 10° SW 20:30:52 27° WNW 20:31:44 26° NW visible
01 Mar 3.4 19:40:17 10° SSW 19:45:33 62° WNW 19:49:10 20° N visible
02 Mar 7.0 05:29:16 10° NE 05:31:55 12° ENE 05:34:34 10° E visible
02 Mar 3.1 18:55:00 10° SSW 19:00:16 58° ESE 19:05:29 10° NE visible
03 Mar 5.5 20:01:49 10° WSW 20:05:23 18° WNW 20:08:58 10° NNW visible
04 Mar 6.2 05:44:39 10° N 05:52:00 31° ENE 05:59:25 10° SE visible
04 Mar 4.4 19:15:04 10° SW 19:20:02 40° WNW 19:25:01 10° N visible
05 Mar 6.6 05:01:21 10° NNE 05:06:31 17° ENE 05:11:44 10° ESE visible
05 Mar 3.1 18:29:22 10° SSW 18:34:44 90° SE 18:40:05 10° NNE visible
06 Mar 6.0 19:38:11 10° W 19:39:54 11° WNW 19:41:38 10° NW visible
07 Mar 5.6 05:18:34 10° N 05:26:33 42° ENE 05:34:37 10° SE visible
07 Mar 5.3 18:50:08 10° WSW 18:54:31 26° WNW 18:58:57 10° N visible
08 Mar 6.3 04:34:34 10° NNE 04:41:06 24° ENE 04:47:42 10° ESE visible
